Weather History for KJER - March, 2014

Change the Weather History Date:

Tuesday, March 11, 2014

  Actual Average Record
Temperature  
Mean Temperature 41 °F 39 °F  
Max Temperature 50 °F 49 °F 68 °F (2005)
Min Temperature 31 °F 29 °F 10 °F (1951)
Degree Days  
Heating Degree Days 24 26  
Month to date heating degree days 230 306  
Since 1 July heating degree days 4898 5193  
Cooling Degree Days 0 0  
Month to date cooling degree days 0 0  
Year to date cooling degree days 0 0  
Moisture  
Dew Point 30 °F    
Average Humidity 70    
Maximum Humidity 100    
Minimum Humidity 39    
Precipitation  
Precipitation 0.00 in 0.03 in 0.29 in (1993)
Month to date precipitation 0.69 0.29  
Year to date precipitation 3.03 2.23  
Sea Level Pressure  
Sea Level Pressure 30.29 in    
Wind  
Wind Speed 12 mph (WSW)    
Max Wind Speed 26 mph    
Max Gust Speed 33 mph    
Visibility 10 miles    
Events      
T = Trace of Precipitation, MM = Missing Value Source: NWS Daily Summary

Daily Weather History Graph

Daily Weather History Graph

Search for Another Location

Airport or City:

Trip Planner

Search our weather history database for the weather conditions in past years. The results will help you decide how hot, cold, wet, or windy it might be!

Date:

Astronomy

Mar. 11, 2014 Rise Set
Actual Time 7:56 AM MDT 7:39 PM MDT
Civil Twilight 7:28 AM MDT 8:07 PM MDT
Nautical Twilight 6:55 AM MDT 8:40 PM MDT
Astronomical Twilight 6:22 AM MDT 9:13 PM MDT
Moon 3:15 PM MDT (3/11) 4:57 AM MDT (3/11)
Length of Visible Light 12h 39m
Length of Day
11h 43m
Waxing Gibbous, 78% of the Moon is Illuminated
Mar 11
Waxing Gibbous
Mar 16
Full
Mar 23
Last Quarter
Mar 30
New
Apr 7
First Quarter

Hourly Weather History & Observations

Time (MDT) Temp. Windchill Dew Point Humidity Pressure Visibility Wind Dir Wind Speed Gust Speed Precip Events Conditions
12:04 AM 35.1 °F 24.5 °F 32.0 °F 89% 30.08 in 10.0 mi WSW 18.4 mph 28.8 mph N/A   Overcast
12:28 AM 34.0 °F 23.8 °F 32.0 °F 92% 30.08 in 10.0 mi WSW 16.1 mph - N/A   Partly Cloudy
12:53 AM 34.0 °F 22.7 °F 30.9 °F 89% 30.13 in 10.0 mi WSW 19.6 mph 28.8 mph N/A   Clear
1:53 AM 34.0 °F 23.0 °F 30.9 °F 89% 30.14 in 10.0 mi WSW 18.4 mph - N/A   Partly Cloudy
2:53 AM 34.0 °F 21.8 °F 32.0 °F 92% 30.17 in 10.0 mi WSW 23.0 mph - N/A   Clear
3:53 AM 34.0 °F 21.3 °F 30.9 °F 89% 30.18 in 10.0 mi West 25.3 mph 33.4 mph N/A   Clear
4:53 AM 32.0 °F 18.9 °F 30.0 °F 92% 30.19 in 10.0 mi WSW 24.2 mph 29.9 mph N/A   Partly Cloudy
5:37 AM 32.0 °F 19.5 °F 30.0 °F 92% 30.15 in 10.0 mi WSW 21.9 mph 29.9 mph N/A   Mostly Cloudy
5:53 AM 32.0 °F 20.1 °F 30.0 °F 92% 30.21 in 10.0 mi West 19.6 mph 28.8 mph N/A   Mostly Cloudy
6:31 AM 30.9 °F 19.4 °F 30.9 °F 100% 30.17 in 10.0 mi WSW 17.3 mph - N/A   Overcast
6:53 AM 30.9 °F 20.2 °F 30.9 °F 100% 30.23 in 10.0 mi WSW 15.0 mph - N/A   Overcast
7:53 AM 30.9 °F 18.7 °F 30.0 °F 96% 30.27 in 10.0 mi West 19.6 mph - N/A   Mostly Cloudy
8:02 AM 30.9 °F 20.2 °F 30.0 °F 96% 30.21 in 10.0 mi West 15.0 mph - N/A   Scattered Clouds
8:53 AM 30.9 °F 20.7 °F 30.0 °F 96% 30.29 in 10.0 mi West 13.8 mph - N/A   Mostly Cloudy
9:29 AM 30.9 °F 20.7 °F 30.0 °F 96% 30.25 in 10.0 mi WSW 13.8 mph - N/A   Overcast
9:44 AM 30.9 °F 21.2 °F 30.0 °F 96% 30.26 in 10.0 mi West 12.7 mph - N/A   Overcast
9:53 AM 30.9 °F 21.2 °F 30.0 °F 96% 30.33 in 10.0 mi West 12.7 mph - N/A   Overcast
10:53 AM 33.1 °F 23.4 °F 30.9 °F 92% 30.37 in 10.0 mi WSW 13.8 mph - N/A   Overcast
11:53 AM 37.9 °F 29.2 °F 33.1 °F 83% 30.37 in 10.0 mi SW 15.0 mph - N/A   Overcast
12:01 PM 39.0 °F 31.8 °F 33.1 °F 79% 30.33 in 10.0 mi WSW 11.5 mph - N/A   Overcast
12:08 PM 39.0 °F 31.4 °F 33.1 °F 79% 30.33 in 10.0 mi WSW 12.7 mph - N/A   Overcast
12:53 PM 42.1 °F 34.9 °F 33.1 °F 70% 30.38 in 10.0 mi WSW 13.8 mph - N/A   Scattered Clouds
1:53 PM 45.0 °F 39.7 °F 30.9 °F 58% 30.38 in 10.0 mi SW 10.4 mph - N/A   Clear
2:53 PM 46.0 °F 41.4 °F 28.9 °F 51% 30.37 in 10.0 mi SSW 9.2 mph - N/A   Mostly Cloudy
3:53 PM 48.0 °F - 26.1 °F 42% 30.36 in 10.0 mi Variable 3.5 mph - N/A   Partly Cloudy
4:53 PM 48.0 °F - 28.0 °F 46% 30.38 in 10.0 mi NW 10.4 mph - N/A   Mostly Cloudy
5:53 PM 48.0 °F - 25.0 °F 41% 30.38 in 10.0 mi North - - N/A   Mostly Cloudy
6:53 PM 46.9 °F - 24.1 °F 41% 30.40 in 10.0 mi West 4.6 mph - N/A   Clear
7:53 PM 43.0 °F 41.3 °F 30.0 °F 60% 30.41 in 10.0 mi West 3.5 mph - N/A   Scattered Clouds
8:53 PM 39.0 °F 34.8 °F 28.9 °F 67% 30.45 in 10.0 mi West 5.8 mph - N/A   Clear
9:53 PM 37.9 °F 34.4 °F 28.0 °F 68% 30.45 in 10.0 mi WSW 4.6 mph - N/A   Clear
10:53 PM 37.0 °F 34.5 °F 28.0 °F 70% 30.44 in 10.0 mi WSW 3.5 mph - N/A   Clear
11:53 PM 36.0 °F - 28.0 °F 73% 30.45 in 10.0 mi Calm Calm - N/A   Clear